Location: Aulus
(42.7909°N, 1.3399°E)
Time: 20:57:37
(UTC+00:00)

Cosmos 1766 Rocket - Pass Details

Date: 19 May 2025
Orbit: 598 x 627 km, 82.5° (Epoch: 18 June)

Event Time Altitude Azimuth Distance (km) Brightness Sun altitude
Rises 21:55:34 0° 357° (N) 2,901 8.1 -21.8°
Reaches altitude 10° 21:57:53 10° 3° (N) 1,986 7.0 -22.0°
Maximum altitude 22:02:09 48° 78° (ENE) 799 3.9 -22.4°
Enters shadow 22:02:15 48° 83° (E) 800 3.9 -22.4°
